Lid_Strength_Index
1 1 1 1 2 2 1 1 1 1 1 1 2 2 2 2 2 2 3 2 2 2
2 2 1 1 1 1 1 1 1 1 1 1 2 2 2 2 2 2 3 3 3 3
2 1 1 1 2 1 1 1 2 2 1 2 2 2 2 1 1 2 2 2 2 2
3 2 1 1 1 1 2 2 2 2 2 2 2 2 2 2 1 2 2 2 2 2
5 4 3 2 1 1 2 2 2 2 2 2 2 2 2 2 2 2 2 2 3 3
6 5 4 3 2 2 2 2 2 2 2 2 2 3 2 2 2 2 2 2 3 3
7 6 5 4 3 2 2 2 2 2 2 2 2 2 2 2 2 2 3 3 3 3
8 7 6 5 4 4 4 2 2 2 2 2 2 2 3 4 3 3 3 3 3 4
10 9 9 8 7 8 7 5 4 4 4 4 4 7 8 5 4 4 4 4 7 9
12 12 11 12 11 10 9 7 6 5 5 5 3 8 8 9 3 4 6 7 10 11
10 11 12 13 12 10 9 9 8 8 7 7 7 9 9 10 7 8 8 8 9 9
11 11 11 12 12 12 10 10 9 11 10 10 9 10 9 10 10 11 10 9 9 9
11 11 11 11 11 11 11 11 10 11 11 11 10 10 10 9 11 12 12 12 12 13
12 12 11 11 11 12 11 11 11 11 11 11 12 11 9 9 11 10 12 12 13 13